[[{"header":{"parameterUnit":"m.s-1","parameterCategory":2,"la1":30.2991,"la2":30.254,"lo1":-89.0895,"lo2":-89.0444,"dy":0.0017,"dx":0.0017,"nx":28,"ny":28,"refTime":"2023-04-28T21:00:00:Z","depth":"0","parameterNumber":2,"parameterNumberName":"U-component_of_CURRENTS"},"data":[0,0,0,0,0,0,0,0,0,0,0,0,0,0,0,0,0,0,0,0,0,0,0,0,0,0,0,0,0,0,0,0,0,0,0,0,0,0,0,0,0,0,0,0,0,0,0,0,0,0,0,0,0,0,0,0,0,0,0.4187,0.4188,0,0.4273,0.4273,0.4274,0.4339,0.434,0.434,0.4341,0.4443,0.4446,0.4448,0,0,0,0,0,0,0,0,0,0,0,0,0,0.4101,0.4102,0.4186,0.4188,0.4189,0.4272,0.4273,0.4275,0.4339,0.434,0.4341,0.4341,0.4443,0.4445,0.4448,0,0,0,0,0,0,0,0,0,0,0,0,0,0.4156,0.4102,0.4186,0.4232,0.4237,0.4272,0.4273,0.4275,0.4339,0.434,0.4341,0.4342,0.4442,0.4445,0.4448,0.4447,0,0,0.4458,0.4459,0,0,0,0,0,0,0,0,0.4153,0.4159,0.4224,0.4229,0.4234,0.4297,0.4281,0.4334,0.4338,0.4299,0.4341,0.4342,0.4396,0.4403,0.4415,0.4451,0.4456,0.4458,0.446,0.4461,0.4462,0,0,0,0,0,0,0,0.4149,0.4156,0.4219,0.4225,0.4232,0.4256,0.4265,0.4291,0.434,0.4302,0.4307,0.4319,0.4399,0.4412,0.4418,0.4457,0.4458,0.4461,0.4463,0.4464,0.4527,0.4527,0,0,0,0,0,0,0.4139,0.4152,0.4217,0.4222,0.4197,0.4257,0.4266,0.4275,0.4339,0.4351,0.4318,0.4321,0.4406,0.4414,0.4422,0.4433,0.4461,0.4464,0.4466,0.4528,0.4527,0.4527,0,0,0,0,0,0,0.4136,0.4143,0.4213,0.419,0.4201,0.4257,0.4266,0.4276,0.4289,0.4351,0.4363,0.432,0.4407,0.4417,0.444,0.4437,0.4465,0.4468,0.4528,0.4527,0.4527,0.445,0,0,0,0,0,0,0.4133,0.4142,0.414,0.4189,0.4202,0.4215,0.4266,0.4277,0.4295,0.43,0.4357,0.4368,0.4409,0.4435,0.4443,0.4442,0.4471,0.4528,0.4528,0.4527,0.4453,0.4447,0.4443,0,0,0,0,0,0.413,0.4108,0.4139,0.4147,0.4199,0.4214,0.4221,0.4265,0.4294,0.4283,0.4331,0.4366,0.444,0.4437,0.4447,0.4447,0.4528,0.4528,0.4527,0.4455,0.4448,0.4443,0,0,0,0,0,0,0.4051,0.4115,0.4149,0.4144,0.4174,0.4225,0.4218,0.4255,0.4285,0.4295,0.4356,0.4369,0.4401,0.4426,0.4422,0.4465,0.4493,0.4494,0.4435,0.4429,0.4423,0.4406,0.4473,0,0,0,0,0,0.4039,0.4048,0.4106,0.4097,0.4112,0.4167,0.4179,0.4213,0.4249,0.4264,0.4306,0.4355,0.4405,0.4416,0.4463,0.4467,0.4514,0.4477,0.4471,0.4467,0.446,0.4538,0.4539,0.4526,0.4526,0.4526,0,0,0.4,0.4039,0.4041,0.4083,0.4111,0.412,0.4175,0.4185,0.4194,0.4269,0.4282,0.4342,0.4407,0.4431,0.4445,0.4447,0.4492,0.4466,0.4461,0.4457,0.4538,0.4539,0.454,0.4525,0.4526,0.4526,0,0,0.393,0.3967,0.3958,0.3985,0.4031,0.4069,0.4069,0.412,0.4144,0.4166,0.4239,0.4285,0.4337,0.4387,0.442,0.4407,0.4475,0.4429,0.4371,0.4446,0.4448,0.445,0.4495,0.4501,0.441,0.4409,0.4409,0,0.388,0.3889,0.3949,0.3952,0.3965,0.4042,0.4029,0.4063,0.4115,0.4134,0.4156,0.4269,0.4318,0.437,0.437,0.4395,0.4444,0.4388,0.4439,0.4443,0.4446,0.4492,0.45,0.4406,0.4406,0.4406,0.4407,0,0.3819,0.3826,0.3813,0.3856,0.3874,0.3868,0.3935,0.3951,0.3997,0.4047,0.4106,0.418,0.4252,0.4274,0.4317,0.4369,0.4398,0.4437,0.4452,0.4443,0.4491,0.4501,0.44,0.4402,0.4403,0.4404,0,0,0.3705,0.376,0.3758,0.3766,0.3825,0.3831,0.3845,0.3886,0.3909,0.3968,0.4,0.4087,0.4156,0.4198,0.4269,0.4315,0.4377,0.4375,0.4381,0.4412,0.4532,0.4544,0.4557,0.4437,0.4438,0.444,0.4549,0,0.3636,0.3623,0.3671,0.365,0.3648,0.372,0.3732,0.3786,0.3845,0.3897,0.3992,0.4065,0.4122,0.4172,0.4229,0.4363,0.4404,0.4343,0.4543,0.4548,0.4555,0.4569,0.4576,0.4675,0.456,0.4561,0.4563,0,0.3563,0.3572,0.3539,0.3571,0.3575,0.358,0.3625,0.3651,0.3752,0.3803,0.3893,0.3996,0.4098,0.4146,0.4336,0.4302,0.4404,0.4485,0.4492,0.4538,0.4579,0.4671,0.4698,0.4509,0.4579,0.4578,0.4577,0,0.3465,0.3475,0.3447,0.3456,0.3505,0.3503,0.3539,0.3622,0.3648,0.3768,0.381,0.3957,0.4046,0.4194,0.4383,0.4373,0.4585,0.4598,0.469,0.4691,0.4752,0.4755,0.4617,0.4712,0.4712,0.4712,0.4711,0,0.3379,0.3355,0.3403,0.3389,0.3364,0.3436,0.3433,0.3492,0.3582,0.3628,0.3774,0.3847,0.4068,0.4225,0.4377,0.4576,0.4594,0.4683,0.4728,0.4722,0.4722,0.4606,0.452,0.4716,0.4715,0.4714,0.4713,0,0.3275,0.3305,0.3273,0.3309,0.3315,0.3307,0.3359,0.3376,0.3477,0.3542,0.3586,0.3782,0.4003,0.4212,0.4467,0.4569,0.4646,0.4816,0.4778,0.4815,0.4693,0.4605,0.4387,0.4298,0.4917,0.4918,0.4919,0,0.3218,0.319,0.3198,0.3182,0.3194,0.3201,0.321,0.3307,0.3347,0.3509,0.3545,0.3765,0.3934,0.4298,0.4559,0.4823,0.4666,0.4933,0.4903,0.4676,0.4613,0.4363,0.4285,0.4951,0.4952,0.4953,0.4953,0,0.31,0.3103,0.3087,0.306,0.3056,0.3056,0.3097,0.3108,0.3245,0.3318,0.346,0.3606,0.3997,0.4278,0.4631,0.4825,0.4699,0.4955,0.4752,0.4644,0.4335,0.4277,0.4851,0.4961,0.496,0.496,0.4959,0.4959,0.3002,0.2967,0.295,0.2919,0.2913,0.2917,0.2901,0.2982,0.3036,0.3158,0.3345,0.3552,0.3996,0.451,0.4673,0.4873,0.4722,0.4817,0.4738,0.4506,0.4371,0.4931,0.5068,0.5068,0.5068,0.5068,0.5068,0,0.2868,0.2849,0.2812,0.2773,0.2732,0.2784,0.2817,0.2817,0.2863,0.3041,0.3181,0.3608,0.3975,0.4352,0.4728,0.4657,0.453,0.4531,0.4183,0.4132,0.4699,0.4652,0.4665,0.4665,0.4665,0.4665,0.4666,0.4666,0.2796,0.2721,0.271,0.2604,0.2586,0.254,0.2549,0.2584,0.2691,0.2851,0.3052,0.328,0.3735,0.4144,0.4314,0.4322,0.3992,0.3863,0.371,0.4119,0.4137,0.4154,0.4084,0.3977,0.3977,0.3082,0.3075,0.307]},{"header":{"parameterUnit":"m.s-1","parameterCategory":2,"la1":30.2991,"la2":30.254,"lo1":-89.0895,"lo2":-89.0444,"dy":0.0017,"dx":0.0017,"nx":28,"ny":28,"refTime":"2023-04-28T21:00:00:Z","depth":"0","parameterNumber":3,"parameterNumberName":"V-component_of_CURRENTS"},"data":[0,0,0,0,0,0,0,0,0,0,0,0,0,0,0,0,0,0,0,0,0,0,0,0,0,0,0,0,0,0,0,0,0,0,0,0,0,0,0,0,0,0,0,0,0,0,0,0,0,0,0,0,0,0,0,0,0,0,0.0454,0.0454,0,0.0458,0.0459,0.0459,0.0429,0.0428,0.0427,0.0426,0.0346,0.0345,0.0343,0,0,0,0,0,0,0,0,0,0,0,0,0,0.0443,0.0443,0.0454,0.0454,0.0454,0.0458,0.0459,0.0459,0.0429,0.0428,0.0427,0.0426,0.0346,0.0345,0.0343,0,0,0,0,0,0,0,0,0,0,0,0,0,0.0448,0.0444,0.0454,0.0439,0.0438,0.0458,0.0459,0.0459,0.0429,0.0428,0.0427,0.0426,0.0347,0.0345,0.0343,0.0358,0,0,0.0337,0.0336,0,0,0,0,0,0,0,0,0.0448,0.0449,0.0441,0.044,0.0439,0.0441,0.0425,0.0421,0.043,0.0433,0.0426,0.0425,0.0371,0.0367,0.0373,0.0354,0.035,0.0337,0.0336,0.0335,0.0334,0,0,0,0,0,0,0,0.0448,0.0449,0.0456,0.0441,0.044,0.0441,0.044,0.0425,0.0408,0.0433,0.043,0.0431,0.0369,0.0375,0.037,0.0349,0.0337,0.0335,0.0334,0.0333,0.0334,0.0335,0,0,0,0,0,0,0.0446,0.0448,0.0456,0.0456,0.044,0.0442,0.0441,0.0442,0.041,0.0404,0.0432,0.0429,0.0379,0.0372,0.0367,0.0379,0.0335,0.0333,0.0332,0.0333,0.0334,0.0335,0,0,0,0,0,0,0.0446,0.0447,0.0456,0.0452,0.0453,0.0443,0.0445,0.0443,0.0448,0.041,0.0403,0.0439,0.0377,0.037,0.0368,0.0376,0.0332,0.033,0.0331,0.0333,0.0335,0.0405,0,0,0,0,0,0,0.0446,0.0447,0.0452,0.0452,0.0453,0.0475,0.0446,0.0444,0.045,0.0447,0.0414,0.0405,0.0376,0.0372,0.0366,0.0372,0.0329,0.033,0.0332,0.0334,0.0401,0.0409,0.0416,0,0,0,0,0,0.0446,0.0459,0.0452,0.0453,0.0458,0.0476,0.0478,0.0466,0.0452,0.0464,0.0446,0.0406,0.0381,0.0372,0.0365,0.037,0.0329,0.0331,0.0334,0.0398,0.0407,0.0416,0,0,0,0,0,0,0.0465,0.0457,0.0449,0.0462,0.0471,0.0471,0.0481,0.0475,0.0473,0.0466,0.0427,0.0419,0.0416,0.0392,0.0382,0.0378,0.0346,0.0347,0.0397,0.0405,0.0412,0.0417,0.0327,0,0,0,0,0,0.0471,0.0472,0.0474,0.0485,0.049,0.0488,0.0494,0.0489,0.0486,0.0483,0.0459,0.0437,0.0425,0.0415,0.0398,0.0402,0.0362,0.04,0.0407,0.0414,0.0414,0.0374,0.0377,0.0344,0.0344,0.0344,0,0,0.0482,0.0478,0.048,0.0489,0.0492,0.0513,0.0489,0.0504,0.0519,0.0474,0.0483,0.0461,0.0433,0.0436,0.0432,0.0415,0.0403,0.0417,0.0423,0.042,0.0377,0.038,0.0383,0.0346,0.0346,0.0345,0,0,0.0509,0.0504,0.0515,0.0526,0.0534,0.0536,0.0543,0.0546,0.0544,0.056,0.0526,0.0516,0.0501,0.0481,0.047,0.0509,0.0443,0.0499,0.0537,0.0499,0.0501,0.0502,0.0456,0.0452,0.0502,0.0502,0.0503,0,0.0518,0.0536,0.0526,0.0546,0.0557,0.0549,0.0575,0.0582,0.0584,0.0584,0.057,0.0548,0.0523,0.0521,0.0535,0.0524,0.0487,0.0506,0.0507,0.0507,0.0507,0.0459,0.0454,0.0506,0.0506,0.0505,0.0505,0,0.0556,0.0573,0.0586,0.0601,0.0617,0.0639,0.0645,0.0655,0.065,0.0649,0.0647,0.0621,0.0603,0.0596,0.058,0.057,0.0539,0.052,0.0482,0.0515,0.0462,0.0456,0.0511,0.051,0.0509,0.0508,0,0,0.0556,0.06,0.0603,0.0624,0.0646,0.0663,0.0691,0.0709,0.0724,0.0716,0.0729,0.071,0.0684,0.0671,0.064,0.0611,0.0582,0.0571,0.0568,0.0521,0.0487,0.047,0.046,0.056,0.0559,0.0559,0.045,0,0.0584,0.0633,0.0646,0.0697,0.0723,0.0729,0.0757,0.0771,0.0776,0.0786,0.0755,0.0755,0.0717,0.071,0.0676,0.0615,0.0569,0.0613,0.0466,0.0462,0.0439,0.0454,0.0478,0.0384,0.0444,0.0443,0.0442,0,0.0606,0.0638,0.0692,0.0742,0.0754,0.0783,0.0816,0.0842,0.0853,0.0855,0.0843,0.0819,0.079,0.0749,0.0644,0.0672,0.0582,0.0523,0.0517,0.0471,0.0433,0.0362,0.0369,0.023,0.0431,0.0432,0.0433,0,0.0603,0.0665,0.0708,0.0727,0.0784,0.0806,0.0833,0.0858,0.0885,0.0895,0.0913,0.0866,0.0852,0.0747,0.0646,0.0635,0.0524,0.0488,0.0376,0.0373,0.0349,0.0346,0.0202,0.0386,0.0386,0.0386,0.0387,0,0.0619,0.0653,0.0712,0.0738,0.0791,0.0822,0.0871,0.0893,0.093,0.0968,0.0945,0.0962,0.085,0.0784,0.0663,0.0518,0.053,0.038,0.0346,0.0376,0.0376,0.0218,0.0115,0.0382,0.0383,0.0384,0.0385,0,0.061,0.065,0.0703,0.0769,0.0793,0.0828,0.0902,0.0941,0.0973,0.1023,0.1031,0.1026,0.0952,0.0833,0.0673,0.0546,0.0312,0.0339,0.0384,0.0357,0.0113,0.0014,-0.0193,-0.027,0.0183,0.0182,0.0181,0,0.0612,0.0639,0.0717,0.0756,0.079,0.0849,0.0897,0.0952,0.1002,0.1064,0.1094,0.1058,0.1059,0.0843,0.0616,0.0401,0.0268,0.0258,0.0234,0.0101,-0.0036,-0.0094,-0.0148,0.0225,0.0224,0.0224,0.0223,0,0.0617,0.0641,0.0689,0.0765,0.0824,0.0896,0.0971,0.1018,0.1087,0.1144,0.1203,0.1217,0.1034,0.0881,0.0611,0.043,0.015,0.024,0.0091,-0.0027,-0.009,-0.0179,0.0285,0.022,0.022,0.0221,0.0221,0.0221,0.0614,0.0647,0.0712,0.0781,0.0856,0.0949,0.1012,0.11,0.1194,0.1325,0.1313,0.1415,0.1187,0.0834,0.0546,0.0093,0.0061,-0.002,-0.0135,-0.0184,-0.0245,0.021,0.0118,0.0118,0.0118,0.0117,0.0117,0,0.061,0.0661,0.073,0.0824,0.0906,0.0948,0.107,0.1151,0.1273,0.1442,0.1531,0.1573,0.1218,0.0835,0.022,-0.0162,-0.0316,-0.0363,-0.044,-0.0482,-0.0081,-0.0062,-0.0182,-0.0182,-0.0182,-0.0182,-0.0181,-0.0181,0.0616,0.0673,0.0716,0.0849,0.0923,0.1044,0.1119,0.125,0.1401,0.1657,0.1831,0.1951,0.1722,0.0566,-0.0243,-0.0478,-0.0741,-0.0815,-0.0955,-0.0675,-0.0651,-0.0628,-0.0631,-0.0869,-0.087,-0.127,-0.1275,-0.1278]}],[{"header":{"parameterUnit":"m.s-1","parameterCategory":2,"la1":30.2991,"la2":30.254,"lo1":-89.0895,"lo2":-89.0444,"dy":0.0017,"dx":0.0017,"nx":28,"ny":28,"refTime":"2023-04-28T21:00:00:Z","depth":"2","parameterNumber":2,"parameterNumberName":"U-component_of_CURRENTS"},"data":[0,0,0,0,0,0,0,0,0,0,0,0,0,0,0,0,0,0,0,0,0,0,0,0,0,0,0,0,0,0,0,0,0,0,0,0,0,0,0,0,0,0,0,0,0,0,0,0,0,0,0,0,0,0,0,0,0,0,0.1723,0.1724,0,0.1741,0.1741,0.1741,0.177,0.177,0.1771,0.1772,0.1782,0.1782,0.1781,0,0,0,0,0,0,0,0,0,0,0,0,0,0.1695,0.1695,0.1723,0.1724,0.1724,0.1741,0.1741,0.1741,0.1769,0.177,0.1772,0.1772,0.1783,0.1782,0.1781,0,0,0,0,0,0,0,0,0,0,0,0,0,0.1706,0.1696,0.1723,0.1743,0.1745,0.1741,0.1741,0.1741,0.1769,0.1771,0.1772,0.1773,0.1783,0.1782,0.1781,0.1751,0,0,0.1779,0.1779,0,0,0,0,0,0,0,0,0.1706,0.1707,0.174,0.1742,0.1744,0.1758,0.1735,0.1745,0.1769,0.1756,0.1772,0.1774,0.1775,0.1775,0.177,0.1751,0.1752,0.1779,0.1778,0.1778,0.1778,0,0,0,0,0,0,0,0.1705,0.1706,0.1727,0.174,0.1743,0.1745,0.1748,0.1737,0.1755,0.1758,0.1761,0.1768,0.1776,0.1771,0.1771,0.1752,0.1779,0.1778,0.1778,0.1777,0.1824,0.1826,0,0,0,0,0,0,0.1709,0.1705,0.1726,0.1727,0.1732,0.1745,0.1748,0.1749,0.1756,0.1759,0.1767,0.1769,0.1772,0.1772,0.1771,0.1844,0.1778,0.1777,0.1777,0.1822,0.1824,0.1826,0,0,0,0,0,0,0.1709,0.1711,0.1725,0.172,0.1723,0.1745,0.1745,0.1749,0.1781,0.1763,0.1766,0.18,0.1773,0.1772,0.1806,0.184,0.1777,0.1776,0.182,0.1823,0.1825,0.1919,0,0,0,0,0,0,0.1707,0.171,0.1725,0.172,0.1723,0.1746,0.1745,0.1748,0.1783,0.1787,0.1792,0.1792,0.1774,0.1808,0.1806,0.1838,0.1776,0.1818,0.1821,0.1824,0.1914,0.1925,0.1934,0,0,0,0,0,0.1706,0.1713,0.1725,0.1729,0.1738,0.1747,0.1749,0.1766,0.1784,0.1799,0.1818,0.1794,0.1826,0.1809,0.1806,0.1839,0.1816,0.182,0.1824,0.1909,0.1922,0.1933,0,0,0,0,0,0,0.1714,0.1717,0.173,0.1741,0.1758,0.1754,0.1771,0.1787,0.1811,0.1826,0.1814,0.1815,0.186,0.1835,0.1817,0.1862,0.1817,0.1821,0.1883,0.1895,0.1905,0.1912,0.1775,0,0,0,0,0,0.1721,0.1727,0.1737,0.1752,0.176,0.1774,0.1787,0.1802,0.1817,0.1831,0.1843,0.1853,0.1865,0.1872,0.1876,0.1895,0.191,0.1914,0.1925,0.1933,0.1937,0.1997,0.2013,0.1839,0.1839,0.1839,0,0,0.173,0.1734,0.174,0.1755,0.1766,0.1782,0.1785,0.1813,0.1839,0.1826,0.1876,0.1892,0.1881,0.1914,0.193,0.1902,0.1998,0.1938,0.1945,0.1945,0.2003,0.202,0.2035,0.1841,0.1841,0.184,0,0,0.1737,0.1753,0.1759,0.1775,0.1803,0.181,0.1829,0.1854,0.1879,0.1918,0.193,0.1974,0.1977,0.1991,0.1991,0.2055,0.2055,0.2058,0.2106,0.2165,0.218,0.2193,0.2266,0.2285,0.2055,0.2055,0.2055,0,0.1754,0.1759,0.1766,0.178,0.1801,0.1828,0.1851,0.1872,0.1914,0.1947,0.1946,0.2014,0.201,0.2062,0.2088,0.2078,0.2119,0.2062,0.2179,0.2192,0.2204,0.2276,0.2296,0.206,0.206,0.2059,0.2059,0,0.1756,0.1778,0.1785,0.1809,0.1834,0.1859,0.1891,0.1937,0.1974,0.2001,0.208,0.2094,0.2139,0.2145,0.2131,0.222,0.2228,0.2193,0.2151,0.2228,0.2298,0.2317,0.2067,0.2066,0.2064,0.2063,0,0,0.1752,0.178,0.1789,0.1809,0.1856,0.1872,0.1931,0.1987,0.2042,0.2091,0.2167,0.2202,0.2242,0.2246,0.2258,0.2299,0.2428,0.2289,0.229,0.2367,0.2589,0.2558,0.2575,0.2424,0.2427,0.243,0.2616,0,0.176,0.178,0.1802,0.1846,0.1862,0.1917,0.1967,0.203,0.2087,0.2169,0.2215,0.2283,0.227,0.2314,0.2363,0.2415,0.2477,0.2382,0.2498,0.2502,0.2468,0.2595,0.2199,0.2328,0.2634,0.2638,0.264,0,0.1756,0.1771,0.1805,0.1865,0.1881,0.1921,0.2022,0.2069,0.2182,0.2238,0.233,0.2375,0.2479,0.2438,0.2586,0.2535,0.2578,0.2601,0.2608,0.2554,0.2505,0.2294,0.2351,0.2671,0.2668,0.2666,0.2664,0,0.1729,0.1778,0.1804,0.1824,0.1893,0.1942,0.1992,0.2098,0.2151,0.2297,0.237,0.2489,0.2568,0.2643,0.2724,0.2672,0.2876,0.2801,0.2817,0.2816,0.2486,0.245,0.2903,0.2903,0.2902,0.2902,0.2901,0,0.1717,0.1743,0.1797,0.1811,0.1865,0.1928,0.2009,0.2087,0.2205,0.2281,0.241,0.2507,0.2623,0.2749,0.2792,0.2897,0.2947,0.2864,0.2872,0.2511,0.2478,0.2757,0.2738,0.2909,0.2907,0.2906,0.2905,0,0.1682,0.1715,0.1745,0.182,0.1849,0.1888,0.1993,0.2049,0.2184,0.2296,0.2352,0.2554,0.2744,0.2864,0.3008,0.2988,0.3075,0.309,0.2681,0.2636,0.2957,0.294,0.3127,0.3127,0.3128,0.3128,0.3129,0,0.1664,0.1672,0.1735,0.1751,0.1787,0.1854,0.1901,0.2025,0.2085,0.2314,0.2366,0.2607,0.2754,0.3001,0.294,0.3031,0.3173,0.2794,0.2605,0.2997,0.2986,0.2968,0.2951,0.2215,0.2208,0.2202,0.2197,0,0.1622,0.1648,0.1665,0.1696,0.1738,0.1784,0.1862,0.1907,0.2062,0.219,0.2378,0.252,0.2685,0.2625,0.2755,0.273,0.2745,0.2683,0.3204,0.223,0.2155,0.2138,0.2148,0.2146,0.2151,0.2155,0.2157,0.2159,0.1589,0.1585,0.1603,0.1629,0.1667,0.1704,0.1735,0.183,0.1934,0.2095,0.2268,0.2381,0.232,0.2316,0.2322,0.2305,0.2446,0.2351,0.2361,0.2379,0.2251,0.2181,0.2154,0.2159,0.2163,0.2167,0.2171,0,0.1529,0.1529,0.1536,0.1555,0.1561,0.1623,0.1695,0.1719,0.182,0.1953,0.2102,0.1834,0.183,0.191,0.1712,0.172,0.16,0.1769,0.1563,0.161,0.1653,0.1483,0.1186,0.1186,0.1185,0.1185,0,0,0.1493,0.1462,0.1457,0.1437,0.1467,0.1485,0.152,0.1574,0.1642,0.1642,0.1637,0.1756,0.1754,0.1425,0.1358,0.1305,0.1475,0.125,0.1995,0.1792,0.1837,0.1901,0.1683,0,0,0,0,0]},{"header":{"parameterUnit":"m.s-1","parameterCategory":2,"la1":30.2991,"la2":30.254,"lo1":-89.0895,"lo2":-89.0444,"dy":0.0017,"dx":0.0017,"nx":28,"ny":28,"refTime":"2023-04-28T21:00:00:Z","depth":"2","parameterNumber":3,"parameterNumberName":"V-component_of_CURRENTS"},"data":[0,0,0,0,0,0,0,0,0,0,0,0,0,0,0,0,0,0,0,0,0,0,0,0,0,0,0,0,0,0,0,0,0,0,0,0,0,0,0,0,0,0,0,0,0,0,0,0,0,0,0,0,0,0,0,0,0,0,-0.033,-0.0332,0,-0.0446,-0.0447,-0.0449,-0.0551,-0.0552,-0.0554,-0.0555,-0.0738,-0.0741,-0.0745,0,0,0,0,0,0,0,0,0,0,0,0,0,-0.0232,-0.0233,-0.033,-0.0332,-0.0333,-0.0446,-0.0447,-0.0449,-0.0551,-0.0553,-0.0554,-0.0555,-0.0736,-0.0741,-0.0745,0,0,0,0,0,0,0,0,0,0,0,0,0,-0.0304,-0.0234,-0.033,-0.0397,-0.0404,-0.0445,-0.0447,-0.0449,-0.0551,-0.0553,-0.0554,-0.0556,-0.0735,-0.074,-0.0746,-0.0747,0,0,-0.0763,-0.0766,0,0,0,0,0,0,0,0,-0.03,-0.0308,-0.0386,-0.0393,-0.0401,-0.0485,-0.048,-0.0552,-0.055,-0.0496,-0.0555,-0.0557,-0.0658,-0.067,-0.0688,-0.0755,-0.0763,-0.0764,-0.0767,-0.077,-0.0772,0,0,0,0,0,0,0,-0.0295,-0.0304,-0.0377,-0.0387,-0.0396,-0.0433,-0.0445,-0.0494,-0.0567,-0.0501,-0.0508,-0.052,-0.0663,-0.0682,-0.0693,-0.0766,-0.0764,-0.0769,-0.0772,-0.0775,-0.0914,-0.0914,0,0,0,0,0,0,-0.0276,-0.0299,-0.0373,-0.038,-0.0353,-0.0433,-0.0447,-0.0457,-0.0566,-0.0583,-0.0518,-0.0524,-0.0671,-0.0686,-0.07,-0.0734,-0.077,-0.0775,-0.0778,-0.0913,-0.0914,-0.0914,0,0,0,0,0,0,-0.0273,-0.0281,-0.0368,-0.0342,-0.0355,-0.0433,-0.0444,-0.0458,-0.0495,-0.0578,-0.0598,-0.0541,-0.0673,-0.0692,-0.0751,-0.0742,-0.0778,-0.0783,-0.0913,-0.0913,-0.0914,-0.0786,0,0,0,0,0,0,-0.027,-0.0279,-0.0286,-0.034,-0.0356,-0.0388,-0.0443,-0.0459,-0.0498,-0.0507,-0.0604,-0.0622,-0.0676,-0.0742,-0.0756,-0.075,-0.0787,-0.0913,-0.0913,-0.0914,-0.079,-0.0782,-0.0776,0,0,0,0,0,-0.0266,-0.026,-0.0285,-0.0295,-0.036,-0.0388,-0.0399,-0.0461,-0.0497,-0.0502,-0.0573,-0.062,-0.0756,-0.0746,-0.0763,-0.0758,-0.0912,-0.0913,-0.0914,-0.0794,-0.0784,-0.0776,0,0,0,0,0,0,-0.0227,-0.0272,-0.03,-0.0311,-0.0346,-0.0405,-0.0418,-0.0459,-0.0517,-0.0533,-0.0617,-0.0639,-0.0688,-0.0744,-0.0731,-0.0804,-0.0844,-0.0848,-0.0747,-0.0739,-0.0732,-0.0688,-0.0792,0,0,0,0,0,-0.0217,-0.0225,-0.0273,-0.0284,-0.0297,-0.0358,-0.0381,-0.0418,-0.0474,-0.0502,-0.0568,-0.0643,-0.07,-0.0736,-0.0794,-0.0828,-0.0861,-0.0841,-0.0834,-0.0827,-0.0806,-0.0857,-0.0851,-0.0916,-0.0916,-0.0916,0,0,-0.0205,-0.0232,-0.0238,-0.0276,-0.031,-0.0312,-0.0377,-0.0402,-0.0409,-0.0512,-0.0548,-0.0617,-0.0705,-0.0743,-0.0771,-0.079,-0.0823,-0.0828,-0.0821,-0.0803,-0.0857,-0.085,-0.0844,-0.0916,-0.0916,-0.0916,0,0,-0.0169,-0.0207,-0.0195,-0.0215,-0.0255,-0.0286,-0.0291,-0.0347,-0.038,-0.0417,-0.0494,-0.0551,-0.0644,-0.0693,-0.0733,-0.0722,-0.0781,-0.0756,-0.0682,-0.0732,-0.0726,-0.0721,-0.0729,-0.0726,-0.0753,-0.0753,-0.0753,0,-0.0157,-0.0148,-0.0196,-0.0186,-0.0194,-0.0267,-0.0249,-0.0286,-0.0355,-0.0372,-0.0416,-0.0538,-0.0612,-0.0651,-0.0652,-0.07,-0.073,-0.0701,-0.0718,-0.0714,-0.0711,-0.0721,-0.072,-0.0747,-0.0747,-0.0748,-0.0749,0,-0.0105,-0.0103,-0.0096,-0.0106,-0.0119,-0.0117,-0.0163,-0.0186,-0.0237,-0.0276,-0.0329,-0.0425,-0.0498,-0.0533,-0.059,-0.0611,-0.0636,-0.0697,-0.0727,-0.0696,-0.071,-0.071,-0.0738,-0.074,-0.0742,-0.0743,0,0,-0.0066,-0.0059,-0.0059,-0.0042,-0.0074,-0.0075,-0.0081,-0.0101,-0.0099,-0.0178,-0.0179,-0.0285,-0.0344,-0.0393,-0.0476,-0.0516,-0.0521,-0.059,-0.0596,-0.0572,-0.0601,-0.0563,-0.0561,-0.059,-0.059,-0.059,-0.0607,0,-0.0013,0.0035,0.002,0.0063,0.0085,0.0035,0.0042,0.0011,-0.0033,-0.0052,-0.0149,-0.0191,-0.029,-0.0324,-0.038,-0.0489,-0.0521,-0.0508,-0.0656,-0.0659,-0.061,-0.056,-0.0568,-0.0579,-0.0608,-0.0608,-0.0608,0,0.0044,0.007,0.0124,0.0157,0.0162,0.0173,0.0175,0.0174,0.0127,0.0093,0.0033,-0.0048,-0.0117,-0.0212,-0.0356,-0.0347,-0.0456,-0.0538,-0.0543,-0.055,-0.0623,-0.0625,-0.058,-0.061,-0.061,-0.061,-0.061,0,0.0101,0.0145,0.0194,0.0201,0.0221,0.0234,0.0239,0.0212,0.0224,0.0184,0.0189,0.0079,0.0034,-0.0117,-0.029,-0.0332,-0.0432,-0.0522,-0.0582,-0.058,-0.0633,-0.0635,-0.0615,-0.0615,-0.0615,-0.0615,-0.0615,0,0.0164,0.0202,0.0223,0.0249,0.0308,0.0299,0.0347,0.0335,0.0335,0.037,0.0265,0.0278,0.005,-0.0042,-0.0223,-0.0372,-0.0388,-0.0537,-0.0578,-0.0587,-0.0585,-0.0664,-0.0669,-0.0615,-0.0615,-0.0615,-0.0615,0,0.0209,0.0224,0.0282,0.0318,0.0333,0.037,0.0415,0.0455,0.0449,0.0494,0.0489,0.0425,0.0324,0.012,-0.0099,-0.0263,-0.0427,-0.0484,-0.0448,-0.0483,-0.0559,-0.0558,-0.055,-0.0549,-0.0548,-0.0547,-0.0546,0,0.0237,0.0272,0.0326,0.0362,0.0376,0.0428,0.0473,0.0495,0.0547,0.0593,0.0634,0.0573,0.0562,0.0304,-0.0004,-0.0265,-0.0343,-0.0449,-0.0537,-0.0509,-0.0551,-0.0552,-0.0553,-0.0559,-0.0558,-0.0558,-0.0557,0,0.029,0.0299,0.0343,0.0414,0.0467,0.0545,0.0615,0.0681,0.0725,0.0793,0.0885,0.0896,0.0662,0.04,0.0055,-0.0131,-0.0407,-0.0444,-0.0439,-0.0559,-0.0515,-0.0557,-0.0558,-0.0553,-0.0553,-0.0554,-0.0554,-0.0554,0.0314,0.0353,0.0406,0.0473,0.0545,0.0661,0.0746,0.0849,0.0979,0.1117,0.1101,0.108,0.0698,0.0258,-0.0006,-0.0306,-0.0327,-0.0499,-0.0502,-0.0506,-0.0489,-0.0444,-0.0463,-0.0463,-0.0463,-0.0463,-0.0463,0,0.0348,0.0392,0.0467,0.0564,0.0659,0.0678,0.0842,0.0963,0.1147,0.1227,0.1332,0.0926,0.0669,0.0282,-0.0168,-0.042,-0.0455,-0.0487,-0.0528,-0.0531,-0.0534,-0.0521,-0.0503,-0.0503,-0.0503,-0.0504,0,0,0.0369,0.0439,0.0486,0.0642,0.0709,0.0853,0.0953,0.116,0.1251,0.1335,0.125,0.1199,0.0648,0.0278,-0.0058,-0.0271,-0.0318,-0.0288,-0.0238,-0.0247,-0.0245,-0.0533,-0.0513,0,0,0,0,0]}],[{"header":{"parameterUnit":"m.s-1","parameterCategory":2,"la1":30.2991,"la2":30.254,"lo1":-89.0895,"lo2":-89.0444,"dy":0.0017,"dx":0.0017,"nx":28,"ny":28,"refTime":"2023-04-28T21:00:00:Z","depth":"4","parameterNumber":2,"parameterNumberName":"U-component_of_CURRENTS"},"data":[0,0,0,0,0,0,0,0,0,0,0,0,0,0,0,0,0,0,0,0,0,0,0,0,0,0,0,0,0,0,0,0,0,0,0,0,0,0,0,0,0,0,0,0,0,0,0,0,0,0,0,0,0,0,0,0,0,0,0.0191,0.0192,0,0.0249,0.025,0.0251,0.0314,0.0315,0.0316,0.0317,0.0354,0.0354,0.0354,0,0,0,0,0,0,0,0,0,0,0,0,0,0.0142,0.0142,0.0191,0.0192,0.0192,0.0249,0.025,0.0251,0.0314,0.0315,0.0317,0.0318,0.0354,0.0354,0.0354,0,0,0,0,0,0,0,0,0,0,0,0,0,0.0177,0.0143,0.0191,0.0231,0.0236,0.0249,0.025,0.0251,0.0314,0.0315,0.0317,0.0318,0.0354,0.0354,0.0354,0.0325,0,0,0.0354,0.0354,0,0,0,0,0,0,0,0,0.0175,0.0179,0.0225,0.0229,0.0233,0.0277,0.0246,0.0275,0.0314,0.0284,0.0317,0.0319,0.0325,0.0328,0.0335,0.0327,0.0329,0.0354,0.0354,0.0354,0.0354,0,0,0,0,0,0,0,0.0173,0.0177,0.0213,0.0225,0.0231,0.0249,0.0256,0.0252,0.0295,0.0286,0.0291,0.0298,0.0328,0.0335,0.0336,0.0329,0.0354,0.0354,0.0354,0.0354,0.0355,0.0355,0,0,0,0,0,0,0.0165,0.0174,0.0212,0.0215,0.0208,0.0249,0.0256,0.0261,0.0295,0.0302,0.0297,0.0301,0.0334,0.0336,0.0338,0.0371,0.0354,0.0354,0.0355,0.0355,0.0355,0.0355,0,0,0,0,0,0,0.0163,0.0167,0.0209,0.0197,0.0204,0.0248,0.0253,0.0261,0.0312,0.0304,0.0311,0.0344,0.0335,0.0338,0.0364,0.0371,0.0355,0.0355,0.0355,0.0355,0.0355,0.0396,0,0,0,0,0,0,0.0162,0.0166,0.0174,0.0196,0.0204,0.0243,0.0252,0.0261,0.0311,0.0319,0.0345,0.0348,0.0336,0.0364,0.0364,0.037,0.0355,0.0355,0.0355,0.0355,0.0394,0.0397,0.0399,0,0,0,0,0,0.016,0.0164,0.0173,0.0179,0.021,0.0244,0.0251,0.0286,0.0313,0.0338,0.0354,0.0349,0.0363,0.0365,0.0365,0.0371,0.0355,0.0355,0.0355,0.0393,0.0396,0.0399,0,0,0,0,0,0,0.0151,0.0172,0.0183,0.0195,0.0229,0.0256,0.0284,0.0309,0.0344,0.0364,0.0358,0.0361,0.0381,0.037,0.0373,0.0368,0.0354,0.0354,0.0383,0.0386,0.0388,0.0416,0.0355,0,0,0,0,0,0.0148,0.016,0.0187,0.0202,0.0224,0.0262,0.0285,0.0316,0.0344,0.0365,0.038,0.0384,0.0371,0.038,0.0373,0.0379,0.0376,0.0378,0.0381,0.0383,0.0404,0.0388,0.0391,0.0354,0.0354,0.0354,0,0,0.0147,0.0163,0.0169,0.0201,0.0234,0.0268,0.0282,0.0337,0.0363,0.0359,0.0408,0.0402,0.0376,0.0379,0.0386,0.0379,0.0393,0.0383,0.0385,0.0405,0.0388,0.0392,0.0395,0.0354,0.0354,0.0354,0,0,0.0159,0.0174,0.0195,0.0226,0.0281,0.0299,0.0326,0.0378,0.0404,0.0442,0.0431,0.0435,0.0442,0.0413,0.0396,0.0408,0.0407,0.0407,0.0445,0.0429,0.0433,0.0436,0.0445,0.0449,0.0408,0.0408,0.0408,0,0.0163,0.0189,0.0209,0.0246,0.0276,0.032,0.0361,0.0383,0.0437,0.045,0.0469,0.0464,0.0449,0.0421,0.0431,0.0414,0.0423,0.0437,0.0434,0.0437,0.0439,0.0448,0.0451,0.041,0.041,0.041,0.041,0,0.0192,0.0224,0.0248,0.0298,0.0329,0.0379,0.0411,0.0449,0.0487,0.0502,0.0517,0.0498,0.0501,0.0477,0.0467,0.0464,0.0472,0.044,0.0431,0.0446,0.0454,0.0457,0.0413,0.0412,0.0412,0.0411,0,0,0.0181,0.0252,0.0267,0.03,0.0368,0.0397,0.0437,0.0474,0.0502,0.0537,0.056,0.0536,0.0554,0.0537,0.0511,0.0494,0.0518,0.0496,0.0494,0.0516,0.052,0.0498,0.0499,0.0497,0.0497,0.0498,0.0523,0,0.021,0.0275,0.0303,0.0371,0.0412,0.0452,0.0478,0.0514,0.0544,0.0575,0.0554,0.0576,0.0564,0.0582,0.0565,0.0526,0.0528,0.0517,0.0495,0.0495,0.0481,0.0501,0.0499,0.0525,0.0525,0.0526,0.0526,0,0.0238,0.0277,0.0348,0.0408,0.0431,0.0478,0.0533,0.0565,0.0595,0.0623,0.0645,0.0647,0.0645,0.0631,0.06,0.0605,0.0592,0.0553,0.0552,0.0524,0.0478,0.0503,0.0531,0.053,0.053,0.053,0.0529,0,0.0226,0.0308,0.0363,0.0391,0.0464,0.0508,0.0553,0.0595,0.0621,0.0679,0.071,0.0705,0.0725,0.0693,0.0646,0.0646,0.0597,0.0573,0.0537,0.0536,0.053,0.0527,0.0565,0.0565,0.0565,0.0565,0.0565,0,0.0239,0.0285,0.0375,0.041,0.0474,0.053,0.0596,0.0638,0.0691,0.0715,0.0759,0.0742,0.0749,0.0715,0.0669,0.0616,0.0622,0.0564,0.0541,0.0547,0.0545,0.0533,0.0529,0.0566,0.0566,0.0565,0.0565,0,0.022,0.0281,0.0345,0.0439,0.0478,0.0533,0.0634,0.0658,0.0738,0.0774,0.0807,0.0804,0.0762,0.0734,0.0668,0.0652,0.0584,0.056,0.0593,0.0568,0.0539,0.0537,0.0555,0.0554,0.0554,0.0553,0.0553,0,0.0214,0.025,0.0361,0.0404,0.0463,0.0552,0.0594,0.0682,0.0705,0.0763,0.0754,0.0762,0.0746,0.0642,0.0604,0.0557,0.0535,0.0562,0.0548,0.0563,0.0539,0.0537,0.0535,0.0552,0.0552,0.0552,0.0552,0,0.0188,0.0239,0.0285,0.038,0.0452,0.0504,0.0584,0.0595,0.0676,0.0752,0.072,0.071,0.0656,0.0591,0.0588,0.0523,0.0579,0.0557,0.0558,0.0545,0.056,0.0536,0.0535,0.055,0.0551,0.0551,0.0551,0,0.0166,0.0186,0.0259,0.0346,0.042,0.0452,0.0488,0.0524,0.0566,0.066,0.0613,0.0597,0.0617,0.0566,0.0507,0.0508,0.0505,0.0536,0.0538,0.054,0.0521,0.0536,0.0515,0,0,0,0,0,0.0148,0.017,0.0219,0.0303,0.0372,0.0425,0.0473,0.0498,0.0573,0.0557,0.0612,0.0555,0.0532,0.0476,0.0468,0.0467,0.0484,0.046,0.0515,0.0541,0.0543,0.052,0,0,0,0,0,0,0.0128,0.0169,0.0196,0.0264,0.0317,0.0372,0.0399,0.0432,0.0426,0.0506,0.0455,0.0577,0.0496,0.0536,0.0471,0.0472,0.0513,0.0476,0.0476,0.054,0.0542,0.0544,0.052,0,0,0,0,0]},{"header":{"parameterUnit":"m.s-1","parameterCategory":2,"la1":30.2991,"la2":30.254,"lo1":-89.0895,"lo2":-89.0444,"dy":0.0017,"dx":0.0017,"nx":28,"ny":28,"refTime":"2023-04-28T21:00:00:Z","depth":"4","parameterNumber":3,"parameterNumberName":"V-component_of_CURRENTS"},"data":[0,0,0,0,0,0,0,0,0,0,0,0,0,0,0,0,0,0,0,0,0,0,0,0,0,0,0,0,0,0,0,0,0,0,0,0,0,0,0,0,0,0,0,0,0,0,0,0,0,0,0,0,0,0,0,0,0,0,0.0395,0.0395,0,0.0393,0.0392,0.0392,0.0425,0.0427,0.0428,0.0429,0.0389,0.0386,0.0384,0,0,0,0,0,0,0,0,0,0,0,0,0,0.0391,0.0391,0.0395,0.0395,0.0395,0.0393,0.0392,0.0392,0.0425,0.0427,0.0428,0.0429,0.0389,0.0387,0.0384,0,0,0,0,0,0,0,0,0,0,0,0,0,0.0388,0.0391,0.0395,0.0414,0.0416,0.0393,0.0392,0.0392,0.0425,0.0427,0.0428,0.043,0.039,0.0387,0.0384,0.0328,0,0,0.0374,0.0372,0,0,0,0,0,0,0,0,0.0389,0.0388,0.0411,0.0412,0.0415,0.0414,0.0377,0.037,0.0424,0.0418,0.0429,0.0431,0.0394,0.0391,0.0383,0.0327,0.0325,0.0373,0.0372,0.037,0.0369,0,0,0,0,0,0,0,0.0389,0.0388,0.0391,0.0411,0.0413,0.041,0.0412,0.0375,0.0393,0.0419,0.0422,0.0426,0.0395,0.0386,0.0382,0.0324,0.0374,0.0371,0.0369,0.0367,0.0209,0.0207,0,0,0,0,0,0,0.0395,0.0388,0.0391,0.0391,0.0409,0.0409,0.0411,0.041,0.0395,0.0395,0.0424,0.0428,0.039,0.0386,0.038,0.0312,0.037,0.0367,0.0365,0.0211,0.0209,0.0206,0,0,0,0,0,0,0.0395,0.0395,0.0391,0.0393,0.0392,0.0408,0.0406,0.0409,0.0428,0.04,0.0399,0.0445,0.0392,0.0385,0.0345,0.0311,0.0366,0.0363,0.0214,0.0211,0.0207,0.0176,0,0,0,0,0,0,0.0394,0.0394,0.0402,0.0393,0.0393,0.0392,0.0405,0.0408,0.0428,0.0432,0.0416,0.0413,0.0392,0.0349,0.0341,0.0307,0.036,0.0217,0.0212,0.0209,0.018,0.0172,0.0165,0,0,0,0,0,0.0394,0.0395,0.0402,0.0403,0.04,0.0393,0.0392,0.0407,0.0427,0.0432,0.0406,0.0415,0.0317,0.0345,0.0336,0.03,0.0219,0.0214,0.0209,0.0183,0.0173,0.0165,0,0,0,0,0,0,0.0397,0.0398,0.0406,0.0408,0.0409,0.04,0.0415,0.0418,0.0403,0.0412,0.0389,0.0381,0.0327,0.0317,0.0349,0.0239,0.0268,0.0261,0.0251,0.0242,0.0234,0.0237,0.0357,0,0,0,0,0,0.0399,0.0406,0.0402,0.0408,0.0415,0.0419,0.0423,0.0426,0.0411,0.041,0.0379,0.0343,0.0292,0.0275,0.0228,0.0177,0.0182,0.0146,0.0138,0.0132,0.0125,0.0111,0.0103,0.019,0.019,0.019,0,0,0.0404,0.0407,0.0411,0.041,0.0421,0.0404,0.0426,0.0437,0.0404,0.0402,0.0348,0.0316,0.0271,0.0202,0.0177,0.0197,0.0106,0.0126,0.0121,0.0117,0.0105,0.0097,0.009,0.0186,0.0187,0.0187,0,0,0.0409,0.0422,0.0428,0.0423,0.0434,0.0418,0.0427,0.041,0.0396,0.0334,0.0316,0.0268,0.0192,0.0148,0.0118,0.0043,0.0065,0.003,-0.0,-0.0014,-0.002,-0.0026,-0.0035,-0.0041,0.0031,0.0031,0.0031,0,0.0415,0.0414,0.0429,0.0425,0.0413,0.0425,0.0407,0.0382,0.034,0.0308,0.0313,0.0186,0.0157,0.0073,0.004,0.0027,0.0031,0.0042,-0.002,-0.0026,-0.0031,-0.0039,-0.0045,0.0029,0.0029,0.003,0.003,0,0.0411,0.0412,0.0419,0.0406,0.0391,0.0385,0.0348,0.0317,0.029,0.0249,0.0164,0.0112,0.0044,0.0018,0.0002,-0.0061,-0.0043,-0.0027,0.0012,-0.0041,-0.0047,-0.0052,0.0026,0.0027,0.0028,0.0028,0,0,0.0416,0.0414,0.042,0.0406,0.0378,0.0362,0.0302,0.0241,0.0205,0.0141,0.0075,-0.0022,-0.003,-0.0066,-0.0085,-0.0104,-0.0141,-0.008,-0.008,-0.0072,-0.0164,-0.0183,-0.019,-0.0123,-0.0125,-0.0126,-0.0153,0,0.0409,0.04,0.0385,0.035,0.0336,0.0303,0.0242,0.0185,0.0131,0.0065,0.001,-0.0054,-0.0066,-0.0087,-0.0118,-0.0138,-0.0158,-0.0135,-0.0129,-0.013,-0.0125,-0.0199,-0.013,-0.0157,-0.0159,-0.016,-0.016,0,0.0403,0.0394,0.0371,0.0317,0.0309,0.0276,0.0192,0.014,0.0053,0.0013,-0.0053,-0.0088,-0.0155,-0.0136,-0.0198,-0.0177,-0.018,-0.0185,-0.0185,-0.0196,-0.016,-0.0096,-0.017,-0.017,-0.0169,-0.0168,-0.0167,0,0.0401,0.0375,0.0355,0.034,0.0282,0.0251,0.0212,0.0129,0.0089,0.0001,-0.0027,-0.0118,-0.0144,-0.0177,-0.021,-0.0196,-0.0257,-0.0232,-0.0254,-0.0254,-0.0208,-0.0201,-0.0266,-0.0266,-0.0266,-0.0266,-0.0266,0,0.038,0.0369,0.0363,0.035,0.0309,0.0264,0.0212,0.0155,0.0092,0.0047,-0.0031,-0.0085,-0.0149,-0.0199,-0.0223,-0.0271,-0.0267,-0.0282,-0.0274,-0.0223,-0.0218,-0.0211,-0.0205,-0.0267,-0.0267,-0.0266,-0.0266,0,0.0372,0.0377,0.0356,0.0321,0.0314,0.0286,0.0242,0.0199,0.0147,0.0092,0.0073,-0.005,-0.0131,-0.0192,-0.0252,-0.0277,-0.0319,-0.0326,-0.0279,-0.0263,-0.0302,-0.0297,-0.0365,-0.0366,-0.0367,-0.0368,-0.0369,0,0.0359,0.0357,0.0356,0.0353,0.0343,0.0314,0.0288,0.0234,0.0198,0.0106,0.0075,-0.0022,-0.0103,-0.0219,-0.0287,-0.0351,-0.0346,-0.036,-0.0339,-0.0333,-0.0317,-0.0311,-0.0305,-0.037,-0.037,-0.0371,-0.0371,0,0.0318,0.0344,0.033,0.0352,0.0343,0.0316,0.0287,0.0263,0.0197,0.0179,0.0072,-0.002,-0.0125,-0.0237,-0.0288,-0.0331,-0.0357,-0.037,-0.0368,-0.0348,-0.0339,-0.0322,-0.0315,-0.0374,-0.0374,-0.0373,-0.0373,0,0.0296,0.0289,0.0309,0.0323,0.0334,0.0308,0.0279,0.0232,0.0196,0.0121,0.0083,-0.004,-0.0105,-0.0228,-0.0284,-0.0333,-0.0336,-0.0328,-0.0328,-0.0325,-0.031,-0.0293,-0.0327,0,0,0,0,0,0.0263,0.0267,0.0273,0.0281,0.0308,0.0325,0.0275,0.0241,0.0206,0.0146,0.0121,0.0023,-0.0113,-0.0205,-0.0255,-0.0305,-0.0349,-0.0366,-0.0339,-0.0393,-0.0389,-0.0382,0,0,0,0,0,0,0.023,0.0244,0.0259,0.0276,0.0298,0.0297,0.0274,0.023,0.0186,0.0152,0.0068,0.0055,-0.0091,-0.0046,-0.0231,-0.0255,-0.024,-0.0422,-0.0423,-0.0395,-0.0392,-0.0388,-0.038,0,0,0,0,0]}]]